Tracking 28052 objects as of 21-Sep-2023
HD Live streaming from Space Station
objects crossing your sky now

COSMOS 2340

Track COSMOS 2340 now!
COSMOS 2340 is classified as:


NORAD ID: 24761
Int'l Code: 1997-015A
Perigee: 2,378.3 km
Apogee: 37,960.8 km
Inclination: 65.4 °
Period: 717.2 minutes
Semi major axis: 26540 km
RCS: 6.3095 m2 (large)
Launch date: April 9, 1997
Source: Commonwealth of Independent States (former USSR) (CIS)
Launch site: PLESETSK MISSILE AND SPACE COMPLEX (PKMTR)
Your satellite tracking list
Your tracking list is empty




NASA's NSSDC Master Catalog

Two Line Element Set (TLE):
1 24761U 97015A   23263.91067028  .00000878  00000-0  00000+0 0  9993
2 24761  65.4043 238.8656 6703415 162.7605 241.3239  2.00787992193769
Source of the keplerian elements: AFSPC